Date String (YYYY-MM-DD hh:mm:ss) UTC,Instrument flags,absolute air pressure of the measurement (hPa),sample flow rate (lpm),inlet stack bypass flow (lpm),air temperature of the measurement (°C),ambient temperature measured by the external sensor (°C),aerosol sample conditioner tube jacket temperature (°C),OPC LED temperature (°C),internal box temperature (°C),relative humidity of the measurement (%),span deviation,mass concentration of particles derived from Lorenz-Mie calculation of OPC scattering (μg/m³),mass concentration of particles derived from Lorenz-Mie calculation of OPC scattering (μg/m³),mass concentration of particles derived from Lorenz-Mie calculation of OPC scattering (μg/m³)
DateTimeUTC,F1_M11,P_M11,Q1_M11,Q2_M11,T1_M11,T2_M11,T3_M11,T4_M11,T5_M11,U1_M11,ZSPAN_M11,X0_M11,X2_M11,X1_M11
2024-04-11 21:00:00,SystemResetWarning,0830.1,4.99,000.00,026.5,025.8,000.0,034.8,028.3,011.9,0004.8,0025.00,0007.44,0005.13
2024-04-11 21:01:00,SystemResetWarning,0830.1,5.01,000.00,026.5,025.8,000.0,034.8,028.3,012.1,0004.5,0025.21,0007.39,0005.07
2024-04-11 21:02:00,SystemResetWarning,0830.0,5.01,000.00,026.5,025.8,000.0,034.8,028.3,012.1,0004.4,0024.25,0007.37,0005.02
2024-04-11 21:03:00,SystemResetWarning,0830.0,5.00,000.00,026.5,025.9,000.0,034.9,028.4,012.3,0004.9,0024.04,0007.32,0004.96
2024-04-11 21:04:00,SystemResetWarning,0830.0,5.00,000.00,026.5,025.9,000.0,034.9,028.4,012.2,0001.7,0024.76,0007.21,0004.89
2024-04-11 21:05:00,SystemResetWarning,0830.0,5.00,000.00,026.5,025.9,000.0,034.9,028.4,012.0,0000.0,0025.04,0007.15,0004.84
2024-04-11 21:06:00,SystemResetWarning,0830.0,4.99,000.00,026.6,025.9,000.0,034.9,028.4,011.9,0000.0,0024.91,0007.11,0004.79
2024-04-11 21:07:00,SystemResetWarning,0830.0,4.98,000.00,026.6,025.9,000.0,034.9,028.4,012.3,0000.0,0024.39,0007.14,0004.78
2024-04-11 21:08:00,SystemResetWarning,0830.0,5.00,000.00,026.6,025.9,000.0,034.9,028.4,012.1,0000.0,0023.81,0007.07,0004.75
2024-04-11 21:09:00,SystemResetWarning,0830.0,5.01,000.00,026.6,025.9,000.0,034.9,028.4,012.5,0000.0,0023.95,0007.04,0004.70
2024-04-11 21:10:00,SystemResetWarning,0830.0,5.00,000.00,026.6,025.9,000.0,034.9,028.4,012.1,0000.0,0023.14,0007.03,0004.66
2024-04-11 21:11:00,SystemResetWarning,0830.0,4.98,000.00,026.6,026.0,000.0,034.9,028.4,011.9,0000.0,0023.77,0006.93,0004.60
2024-04-11 21:12:00,SystemResetWarning,0830.0,5.00,000.00,026.6,026.0,000.0,035.0,028.4,011.9,0000.0,0024.38,0006.86,0004.56
2024-04-11 21:13:00,SystemResetWarning,0830.0,5.00,000.00,026.6,026.0,000.0,035.0,028.4,011.8,0000.0,0024.79,0006.77,0004.52
2024-04-11 21:14:00,SystemResetWarning,0830.0,5.01,000.00,026.6,026.0,000.0,035.0,028.5,011.6,0000.0,0024.41,0006.74,0004.50
2024-04-11 21:15:00,SystemResetWarning,0830.0,5.01,000.00,026.6,026.0,000.0,035.0,028.5,011.7,0000.0,0023.78,0006.79,0004.52
2024-04-11 21:16:00,SystemResetWarning,0830.0,4.99,000.00,026.7,026.0,000.0,035.0,028.5,011.7,0000.0,0022.88,0006.81,0004.55
2024-04-11 21:17:00,SystemResetWarning,0830.0,5.00,000.00,026.7,026.0,000.0,035.0,028.5,011.9,0000.0,0022.48,0006.79,0004.57
2024-04-11 21:18:00,SystemResetWarning,0830.0,5.00,000.00,026.7,026.0,000.0,035.0,028.5,011.8,0000.0,0022.46,0006.70,0004.56
2024-04-11 21:19:00,SystemResetWarning,0830.0,5.00,000.00,026.7,026.0,000.0,035.0,028.5,011.8,0000.0,0023.19,0006.77,0004.59
2024-04-11 21:20:00,SystemResetWarning,0830.0,5.00,000.00,026.7,026.0,000.0,035.1,028.5,011.9,0000.0,0023.30,0006.81,0004.58
2024-04-11 21:21:00,SystemResetWarning,0829.9,5.00,000.00,026.7,026.0,000.0,035.1,028.5,012.0,0000.0,0023.88,0006.81,0004.58
2024-04-11 21:22:00,SystemResetWarning,0830.0,5.00,000.00,026.7,026.0,000.0,035.1,028.5,012.0,0000.0,0023.63,0006.79,0004.58
2024-04-11 21:23:00,SystemResetWarning,0829.9,5.00,000.00,026.7,026.0,000.0,035.1,028.5,011.8,0000.0,0022.53,0006.82,0004.57
2024-04-11 21:24:00,SystemResetWarning,0829.9,5.00,000.00,026.7,026.1,000.0,035.1,028.5,011.8,0000.0,0021.75,0006.85,0004.57
2024-04-11 21:25:00,SystemResetWarning,0829.9,5.00,000.00,026.7,026.1,000.0,035.1,028.5,011.7,0000.0,0020.97,0006.88,0004.57
2024-04-11 21:26:00,SystemResetWarning,0829.8,5.00,000.00,026.7,026.1,000.0,035.1,028.6,011.6,0000.0,0020.27,0006.88,0004.56
2024-04-11 21:27:00,SystemResetWarning,0829.8,5.00,000.00,026.8,026.1,000.0,035.1,028.6,011.6,0000.0,0020.31,0006.83,0004.54
2024-04-11 21:28:00,SystemResetWarning,0829.7,5.00,000.00,026.8,026.1,000.0,035.1,028.6,011.7,0000.0,0020.45,0006.84,0004.53
2024-04-11 21:29:00,SystemResetWarning,0829.7,5.00,000.00,026.8,026.1,000.0,035.1,028.6,012.0,0000.0,0020.56,0006.84,0004.52
2024-04-11 21:30:00,SystemResetWarning,0829.7,5.00,000.00,026.8,026.1,000.0,035.2,028.6,011.9,0000.0,0019.94,0006.80,0004.49
2024-04-11 21:31:00,SystemResetWarning,0829.7,5.00,000.00,026.8,026.1,000.0,035.2,028.6,011.9,0000.0,0018.95,0006.75,0004.48
2024-04-11 21:32:00,SystemResetWarning,0829.7,5.00,000.00,026.8,026.1,000.0,035.2,028.6,011.6,0000.0,0018.61,0006.69,0004.50
2024-04-11 21:33:00,SystemResetWarning,0829.8,5.00,000.00,026.8,026.1,000.0,035.2,028.6,011.5,0000.0,0018.57,0006.72,0004.51
2024-04-11 21:34:00,SystemResetWarning,0829.8,5.00,000.00,026.8,026.1,000.0,035.2,028.6,011.7,0000.0,0019.56,0006.77,0004.54
2024-04-11 21:35:00,SystemResetWarning,0829.7,5.00,000.00,026.8,026.2,000.0,035.2,028.7,011.5,0000.0,0020.53,0006.79,0004.55
2024-04-11 21:36:00,SystemResetWarning,0829.7,5.00,000.00,026.9,026.2,000.0,035.2,028.6,011.4,0000.0,0021.21,0006.75,0004.55
2024-04-11 21:37:00,SystemResetWarning,0829.7,4.99,000.00,026.9,026.2,000.0,035.2,028.6,011.4,0000.0,0020.72,0006.66,0004.55
2024-04-11 21:38:00,SystemResetWarning,0829.7,4.99,000.00,026.9,026.2,000.0,035.2,028.6,011.4,0000.0,0020.94,0006.68,0004.58
2024-04-11 21:39:00,SystemResetWarning,0829.7,5.00,000.00,026.9,026.2,000.0,035.2,028.7,011.4,0000.0,0020.84,0006.67,0004.61
2024-04-11 21:40:00,SystemResetWarning,0829.7,5.01,000.00,026.9,026.2,000.0,035.2,028.7,011.7,0000.0,0020.76,0006.67,0004.63
2024-04-11 21:41:00,SystemResetWarning,0829.7,5.01,000.00,026.9,026.2,000.0,035.3,028.7,011.7,0000.0,0021.03,0006.74,0004.65
2024-04-11 21:42:00,SystemResetWarning,0829.7,4.99,000.00,026.9,025.9,000.0,035.3,028.5,011.9,0000.0,0020.46,0006.81,0004.69
2024-04-11 21:43:00,SystemResetWarning,0829.6,4.99,000.00,026.6,023.9,000.0,035.3,027.3,011.8,0000.0,0020.40,0006.87,0004.69
2024-04-11 21:44:00,SystemResetWarning,0829.5,5.02,000.00,026.1,022.4,000.0,035.3,026.5,012.2,0000.0,0020.42,0006.97,0004.70
2024-04-11 21:45:00,SystemResetWarning,0829.4,5.00,000.00,025.8,022.5,000.0,035.1,026.3,012.6,0002.0,0019.16,0006.99,0004.72
2024-04-11 21:46:00,SystemResetWarning,0829.5,5.00,000.00,025.7,022.9,000.0,034.9,026.7,012.6,0000.0,0018.24,0006.95,0004.71
2024-04-11 21:47:00,SystemResetWarning,0829.4,5.00,000.00,025.7,023.3,000.0,034.8,027.0,012.7,0000.0,0017.28,0006.98,0004.70
2024-04-11 21:48:00,SystemResetWarning,0829.4,5.00,000.00,025.7,023.6,000.0,034.7,027.2,012.5,0000.0,0017.25,0007.05,0004.71
2024-04-11 21:49:00,SystemResetWarning,0829.4,5.00,000.00,025.7,024.0,000.0,034.6,027.3,012.7,0000.0,0017.16,0007.13,0004.72
2024-04-11 21:50:00,SystemResetWarning,0829.4,5.00,000.00,025.7,024.2,000.0,034.6,027.4,012.4,0000.0,0017.39,0007.17,0004.73
2024-04-11 21:51:00,SystemResetWarning,0829.4,5.00,000.00,025.8,024.5,000.0,034.5,027.5,012.5,0001.9,0017.29,0007.20,0004.75
2024-04-11 21:52:00,SystemResetWarning,0829.4,4.98,000.00,025.8,024.7,000.0,034.5,027.6,012.4,0000.0,0016.58,0007.18,0004.76
2024-04-11 21:53:00,SystemResetWarning,0829.4,4.99,000.00,025.9,024.9,000.0,034.5,027.7,012.4,0000.0,0017.06,0007.15,0004.77
2024-04-11 21:54:00,SystemResetWarning,0829.4,5.01,000.00,025.9,025.0,000.0,034.5,027.8,012.4,0000.0,0017.98,0007.15,0004.80
2024-04-11 21:55:00,SystemResetWarning,0829.3,5.02,000.00,025.9,025.1,000.0,034.4,027.8,012.1,0000.0,0019.00,0007.12,0004.81
2024-04-11 21:56:00,SystemResetWarning,0829.3,4.98,000.00,026.0,025.2,000.0,034.4,027.9,012.1,0000.0,0019.75,0007.09,0004.82
2024-04-11 21:57:00,SystemResetWarning,0829.4,5.00,000.00,026.0,025.3,000.0,034.4,027.9,012.2,0000.0,0021.48,0007.09,0004.84
2024-04-11 21:58:00,SystemResetWarning,0829.4,5.01,000.00,026.1,025.4,000.0,034.5,028.0,012.4,0000.0,0023.11,0007.07,0004.87
2024-04-11 21:59:00,SystemResetWarning,0829.4,5.00,000.00,026.1,025.5,000.0,034.5,028.0,012.3,0000.0,0023.60,0007.05,0004.87
